STARLINK-35866

Last updated on Fri Dec 19 2025 00:02:08 GMT+0000 (Coordinated Universal Time)

1 66878U 25283A 25352.58336806 -.01258833 00000+0 -77875-2 0 9998 2 66878 53.1557 44.4512 0001250 54.0775 63.3568 15.79225253 3363
UTC large
Height (km)
Speed (km/s)
/
Latitude / Longitude
Inclination (degrees)
Orbital Period (minutes)
Azimuth
Elevation
Range (km)
Doppler Factor

Next 0 passes for location: London (51.5072 / 0.1276)

Sorry there are no passes over London.